Regional Weather Roundup
Issued by NWS

Home | Current Version | Previous Version | Graphics & Text | Print | Product List | Glossary On
Versions: 1 2 3 4 5 6 7 8 9 10 11 12 13 14 15 16 17 18 19 20 21 22 23 24 25 26 27 28
000
ASUS45 KPSR 222010
RWRAZ

ARIZONA HOURLY REGIONAL WEATHER ROUNDUP
NATIONAL WEATHER SERVICE PHOENIX AZ
100 PM MST WED NOV 22 2017

NOTE: FAIR INDICATES FEW OR NO CLOUDS BELOW 12,000 FEET WITH NO
SIGNIFICANT WEATHER AND/OR OBSTRUCTIONS TO VISIBILITY.

AZZ001>003-036-222100-
NORTHWEST ARIZONA

CITY           SKY/WX    TMP DP  RH WIND       PRES   REMARKS
BULLHEAD CITY  SUNNY     82  32  16 N23G30    30.12F
KINGMAN        SUNNY     77  30  17 N13       30.27F
$$

AZZ004>008-015-016-018-222100-
NORTH CENTRAL ARIZONA

CITY           SKY/WX    TMP DP  RH WIND       PRES   REMARKS
GRAND CANYON   SUNNY     66  31  27 NE10      30.44F
WILLIAMS       SUNNY     70  27  19 NW9       30.41F
PRESCOTT       SUNNY     71  29  21 CALM      30.32F
FLAGSTAFF      SUNNY     63  29  27 E8G21     30.43F
PAYSON         SUNNY     72  23  16 S6G13     30.32F
PAGE           SUNNY     60  28  29 VRB5      30.39F
$$

AZZ009>014-017-222100-
NORTHEAST ARIZONA

CITY           SKY/WX    TMP DP  RH WIND       PRES   REMARKS
WINSLOW        SUNNY     63  24  22 CALM      30.38F
SAINT JOHNS    SUNNY     61  23  23 CALM      30.37F
WINDOW ROCK    SUNNY     67  25  20 CALM      30.39F
SHOW LOW       SUNNY     61  25  25 N10       30.42F
$$

AZZ540-542>544-546-548-222100-
GREATER PHOENIX AREA

CITY           SKY/WX    TMP DP  RH WIND       PRES   REMARKS
PHOENIX        MOSUNNY   86  24  10 VRB6      30.10F
BUCKEYE        SUNNY     82  81  94 E13       30.11F
GLENDALE       MOSUNNY   88  23   9 CALM      30.12F
LUKE AFB       SUNNY     86  27  12 E7        30.09F
DEER VALLEY    SUNNY     84  24  11 SE8       30.11F
SCOTTSDALE     SUNNY     84  27  12 SE8       30.13F
CHANDLER       SUNNY     84  25  11 CALM      30.12F
$$

AZZ539-553-222100-
SOUTHWEST MARICOPA COUNTY AND PINAL COUNTY

CITY           SKY/WX    TMP DP  RH WIND       PRES   REMARKS
CASA GRANDE    NOT AVBL
GILA BEND      MOSUNNY   86  18   8 E12       30.07F
$$

AZZ503-504-507>509-222100-
SOUTHEAST ARIZONA

CITY           SKY/WX    TMP DP  RH WIND       PRES   REMARKS
TUCSON         SUNNY     84  16   8 E13       30.17F
DAVIS-MONTHAN  SUNNY     84  17   8 SE10      30.16F
NOGALES        SUNNY     82  17   9 E8        30.21F
SIERRA VISTA   SUNNY     73  12   9 E13       30.29F
DOUGLAS        SUNNY     74  15  10 E9        30.26F
SAFFORD        SUNNY     71  20  14 SW9       30.25F
$$

AZZ532-222100-
SOUTHWEST ARIZONA

CITY           SKY/WX    TMP DP  RH WIND       PRES   REMARKS
YUMA           SUNNY     87  29  12 N9        30.06F
$$

CAZ041-043-047-048-061-525>527-560>570-222100-
SOUTHERN CALIFORNIA

CITY           SKY/WX    TMP DP  RH WIND       PRES   REMARKS
DOWNTOWN L.A.  SUNNY     91  36  14 CALM      30.01F
L.A. AIRPORT   SUNNY     93  35  13 CALM      30.02F
SAN DIEGO      SUNNY     88  42  20 NW6       30.02F
BURBANK        SUNNY     90  39  16 CALM      30.05F
ONTARIO        SUNNY     91  33  12 W7        30.06F
RIVERSIDE      SUNNY     92  38  15 E9        30.06F
PALM SPRINGS   SUNNY     93  37  14 CALM      30.09F
EL CENTRO NAS  SUNNY     88  34  14 NE7       30.09F
IMPERIAL       SUNNY     86  37  17 VRB3      30.07F
BLYTHE         SUNNY     83  27  13 NW5       30.11F
NEEDLES        SUNNY     85  34  16 N10       30.14F
$$

NVZ020-UTZ003-222100-
SOUTHERN NEVADA-UTAH

CITY           SKY/WX    TMP DP  RH WIND       PRES   REMARKS
LAS VEGAS      SUNNY     76  37  24 CALM      30.25F
SALT LAKE CITY PTSUNNY   64  40  41 CALM      30.39F
$$

NMZ009-TXZ055-222100-
NEW MEXICO-WEST TEXAS

CITY           SKY/WX    TMP DP  RH WIND       PRES   REMARKS
ALBUQUERQUE    PTSUNNY   56  28  34 CALM      30.36F
EL PASO        MOSUNNY   65  25  22 E3        30.31F
$$


........................KEY........................
SKY/WX - SKY CONDITION/WEATHER
TMP    - TEMPERATURE IN FAHRENHEIT
DP     - DEW POINT IN FAHRENHEIT
RH     - RELATIVE HUMIDITY IN PERCENT
WIND   - DIRECTION AND SPEED IN MILES PER HOUR (MPH)
VRB    - VARIABLE WIND DIRECTION
PRES   - MEAN SEA LEVEL PRESSURE IN INCHES OF MERCURY
         F - FALLING PRESSURE   R - RISING PRESSURE
         S - STEADY PRESSURE
VSB    - VISIBILITY IN MILES
HX     - HEAT INDEX IN FAHRENHEIT
WCI    - WIND CHILL INDEX IN FAHRENHEIT
TC     - TEMPERATURE IN CELSIUS WHICH IS ALSO KNOWN AS
         TEMPERATURE IN CENTIGRADE
AFB    - AIR FORCE BASE
         LUKE AFB IS LUKE AIR FORCE BASE
         DAVIS-MONTHAN IS DAVIS-MONTHAN AIR FORCE BASE
NAS    - NAVAL AIR STATION
         EL CENTRO NAS IS EL CENTRO NAVAL AIR STATION
N/A    - NOT AVAILABLE





USA.gov is the U.S. government's official web portal to all federal, state and local government web resources and services.